DeKalb, IL

7:36 AM CDT on June 22, 2017 (GMT -0500)
De Kalb Taylor Municipal

Weather History for KDKB - April, 2013

Change the Weather History Date:

Sunday, April 7, 2013

  Actual Average (KARR) Record (KARR)
Temperature  
Mean Temperature 46 °F -  
Max Temperature 57 °F 54 °F 80 °F (2001)
Min Temperature 36 °F 33 °F 21 °F (2007)
Degree Days  
Heating Degree Days 18    
Moisture  
Dew Point 37 °F    
Average Humidity 73    
Maximum Humidity 87    
Minimum Humidity 48    
Precipitation  
Precipitation 0.00 in - - ()
Sea Level Pressure  
Sea Level Pressure 29.87 in    
Wind  
Wind Speed 13 mph (WNW)    
Max Wind Speed 22 mph    
Max Gust Speed 29 mph    
Visibility 9 miles    
Events      
Averages and records for this station are not official NWS values.
T = Trace of Precipitation, MM = Missing Value Source: NWS Daily Summary

Daily Weather History Graph

Daily Weather History Graph

Search for Another Location

Airport or City:

Trip Planner

Search our weather history database for the weather conditions in past years. The results will help you decide how hot, cold, wet, or windy it might be!

Date:

Astronomy

Apr. 07, 2013 Rise Set
Actual Time 6:27 AM CDT 7:27 PM CDT
Civil Twilight 5:58 AM CDT 7:55 PM CDT
Nautical Twilight 5:24 AM CDT 8:29 PM CDT
Astronomical Twilight 4:49 AM CDT 9:05 PM CDT
Moon 4:47 AM CDT (4/7) 4:57 PM CDT (4/7)
Length of Visible Light 13h 57m
Length of Day
13h 00m
Waning Crescent, 8% of the Moon is Illuminated
Apr 7
Waning Crescent
Apr 10
New
Apr 18
First Quarter
Apr 25
Full
May 2
Last Quarter

Hourly Weather History & Observations

Time (CDT) Temp. Windchill Dew Point Humidity Pressure Visibility Wind Dir Wind Speed Gust Speed Precip Events Conditions
12:15 AM 51.8 °F - 47.3 °F 85% 29.64 in 10.0 mi WSW 15.0 mph - N/A   Overcast
12:35 AM 50.9 °F - 47.3 °F 87% 29.64 in 10.0 mi WSW 15.0 mph 20.7 mph N/A   Overcast
12:55 AM 50.2 °F - 46.6 °F 87% 29.65 in 10.0 mi West 21.9 mph 26.5 mph N/A   Overcast
1:15 AM 48.4 °F - 44.8 °F 87% 29.66 in 7.0 mi West 21.9 mph 28.8 mph N/A   Overcast
1:55 AM 46.9 °F - 43.3 °F 87% 29.68 in 7.0 mi West 17.3 mph 23.0 mph N/A   Overcast
2:15 AM 46.8 °F - 43.0 °F 87% 29.69 in 7.0 mi West 16.1 mph 21.9 mph N/A   Overcast
2:35 AM 46.4 °F 39.5 °F 42.8 °F 87% 29.69 in 7.0 mi West 17.3 mph 24.2 mph N/A   Overcast
2:55 AM 45.7 °F 39.1 °F 41.9 °F 87% 29.70 in 7.0 mi WNW 15.0 mph 23.0 mph N/A   Overcast
3:15 AM 45.5 °F 38.6 °F 41.2 °F 85% 29.71 in 7.0 mi West 16.1 mph 26.5 mph N/A   Overcast
3:35 AM 45.0 °F 38.2 °F 40.5 °F 84% 29.72 in 10.0 mi West 15.0 mph - N/A   Overcast
3:55 AM 44.8 °F 38.0 °F 40.5 °F 85% 29.73 in 7.0 mi West 15.0 mph - N/A   Overcast
4:15 AM 44.2 °F 36.4 °F 39.6 °F 84% 29.74 in 10.0 mi West 18.4 mph 24.2 mph N/A   Overcast
4:35 AM 43.7 °F 36.0 °F 38.7 °F 82% 29.75 in 10.0 mi WNW 17.3 mph 26.5 mph N/A   Overcast
4:55 AM 43.0 °F 34.8 °F 38.5 °F 84% 29.77 in 7.0 mi West 18.4 mph 23.0 mph N/A   Overcast
5:15 AM 40.8 °F 32.9 °F 36.1 °F 83% 29.79 in 7.0 mi WNW 15.0 mph 23.0 mph N/A   Overcast
5:35 AM 40.3 °F 33.4 °F 36.0 °F 85% 29.79 in 7.0 mi WNW 11.5 mph 18.4 mph N/A   Overcast
5:55 AM 40.1 °F 32.7 °F 36.1 °F 86% 29.79 in 7.0 mi WNW 12.7 mph - N/A   Overcast
6:15 AM 40.1 °F 33.2 °F 36.5 °F 87% 29.81 in 7.0 mi West 11.5 mph - N/A   Overcast
6:35 AM 40.1 °F 32.4 °F 36.5 °F 87% 29.83 in 7.0 mi WNW 13.8 mph - N/A   Overcast
6:55 AM 40.3 °F 32.6 °F 36.5 °F 86% 29.84 in 5.0 mi West 13.8 mph - N/A   Overcast
7:15 AM 40.1 °F 32.7 °F 36.1 °F 86% 29.86 in 5.0 mi WNW 12.7 mph - N/A   Overcast
7:35 AM 40.1 °F 32.7 °F 36.3 °F 86% 29.87 in 5.0 mi WNW 12.7 mph 18.4 mph N/A   Overcast
7:55 AM 40.1 °F 32.7 °F 36.0 °F 85% 29.87 in 7.0 mi West 12.7 mph - N/A   Overcast
8:15 AM 40.1 °F 33.6 °F 35.8 °F 85% 29.88 in 7.0 mi WNW 10.4 mph - N/A   Overcast
8:35 AM 40.1 °F 33.6 °F 35.6 °F 84% 29.89 in 7.0 mi WNW 10.4 mph - N/A   Overcast
8:55 AM 40.3 °F 33.4 °F 35.6 °F 83% 29.90 in 7.0 mi WNW 11.5 mph - N/A   Overcast
9:15 AM 40.6 °F 35.4 °F 35.8 °F 83% 29.90 in 7.0 mi WNW 8.1 mph - N/A   Overcast
9:35 AM 41.5 °F 36.4 °F 36.1 °F 81% 29.91 in 7.0 mi West 8.1 mph - N/A   Mostly Cloudy
9:55 AM 42.6 °F 37.8 °F 36.5 °F 79% 29.92 in 7.0 mi West 8.1 mph - N/A   Mostly Cloudy
10:15 AM 43.5 °F 40.1 °F 36.7 °F 77% 29.93 in 10.0 mi West 5.8 mph - N/A   Scattered Clouds
10:35 AM 44.4 °F 38.6 °F 37.2 °F 76% 29.94 in 10.0 mi WNW 11.5 mph - N/A   Scattered Clouds
10:55 AM 45.3 °F 43.0 °F 37.2 °F 73% 29.94 in 10.0 mi WNW 4.6 mph - N/A   Scattered Clouds
11:15 AM 46.8 °F - 37.8 °F 71% 29.95 in 10.0 mi West 8.1 mph - N/A   Clear
11:35 AM 48.2 °F - 38.1 °F 68% 29.95 in 10.0 mi WNW 9.2 mph - N/A   Clear
11:55 AM 49.1 °F - 38.1 °F 66% 29.94 in 10.0 mi NW 8.1 mph - N/A   Clear
12:15 PM 50.0 °F - 38.1 °F 64% 29.94 in 10.0 mi NW 5.8 mph - N/A   Clear
12:35 PM 50.5 °F - 37.9 °F 62% 29.94 in 10.0 mi NW 8.1 mph - N/A   Clear
12:55 PM 51.4 °F - 37.6 °F 59% 29.94 in 10.0 mi West 8.1 mph - N/A   Clear
1:15 PM 52.2 °F - 37.0 °F 56% 29.94 in 10.0 mi West 9.2 mph - N/A   Clear
1:35 PM 52.7 °F - 37.9 °F 57% 29.94 in 10.0 mi West 6.9 mph - N/A   Clear
1:55 PM 52.9 °F - 37.9 °F 57% 29.94 in 10.0 mi WNW 5.8 mph - N/A   Clear
2:15 PM 55.0 °F - 37.9 °F 53% 29.94 in 10.0 mi WSW 10.4 mph - N/A   Clear
2:35 PM 54.9 °F - 38.3 °F 54% 29.94 in 10.0 mi WSW 8.1 mph - N/A   Clear
2:55 PM 54.1 °F - 38.1 °F 55% 29.94 in 10.0 mi WNW 4.6 mph - N/A   Clear
3:15 PM 55.6 °F - 37.8 °F 51% 29.92 in 10.0 mi WNW 8.1 mph - N/A   Clear
3:35 PM 55.9 °F - 38.1 °F 51% 29.92 in 10.0 mi NW 6.9 mph - N/A   Clear
3:55 PM 56.8 °F - 38.5 °F 50% 29.92 in 10.0 mi WNW 6.9 mph - N/A   Clear
4:15 PM 56.3 °F - 37.6 °F 50% 29.92 in 10.0 mi Calm Calm - N/A   Clear
4:35 PM 57.0 °F - 37.8 °F 49% 29.92 in 10.0 mi WSW 4.6 mph - N/A   Clear
4:55 PM 55.8 °F - 37.0 °F 49% 29.93 in 10.0 mi Calm Calm - N/A   Clear
5:15 PM 56.1 °F - 37.6 °F 50% 29.92 in 10.0 mi South 3.5 mph - N/A   Clear
5:35 PM 57.2 °F - 37.4 °F 48% 29.92 in 10.0 mi SE 3.5 mph - N/A   Clear
5:55 PM 56.3 °F - 39.0 °F 52% 29.92 in 10.0 mi SE 4.6 mph - N/A   Clear
6:15 PM 56.5 °F - 38.7 °F 51% 29.92 in 10.0 mi SSE 3.5 mph - N/A   Clear
6:35 PM 55.8 °F - 38.1 °F 52% 29.92 in 10.0 mi Calm Calm - N/A   Clear
6:55 PM 55.4 °F - 37.8 °F 52% 29.91 in 10.0 mi East 3.5 mph - N/A   Clear
7:15 PM 53.1 °F - 38.7 °F 58% 29.92 in 10.0 mi East 4.6 mph - N/A   Clear
7:35 PM 47.8 °F - 35.6 °F 63% 29.92 in 10.0 mi East 15.0 mph - N/A   Clear
7:55 PM 45.1 °F 39.5 °F 35.6 °F 69% 29.93 in 10.0 mi East 11.5 mph - N/A   Clear
8:15 PM 43.7 °F 38.1 °F 35.2 °F 72% 29.93 in 10.0 mi East 10.4 mph - N/A   Clear
8:35 PM 42.1 °F 35.7 °F 34.0 °F 73% 29.94 in 10.0 mi East 11.5 mph - N/A   Clear
8:55 PM 40.8 °F 33.3 °F 33.6 °F 76% 29.94 in 10.0 mi East 13.8 mph - N/A   Clear
9:15 PM 40.1 °F 32.7 °F 33.1 °F 76% 29.94 in 10.0 mi East 12.7 mph - N/A   Clear
9:35 PM 39.2 °F 31.6 °F 32.5 °F 77% 29.94 in 10.0 mi East 12.7 mph - N/A   Clear
9:55 PM 38.3 °F 30.9 °F 32.2 °F 79% 29.94 in 10.0 mi East 11.5 mph - N/A   Clear
10:15 PM 37.6 °F 30.0 °F 32.0 °F 80% 29.93 in 10.0 mi East 11.5 mph - N/A   Clear
10:35 PM 37.6 °F 29.6 °F 32.0 °F 80% 29.92 in 10.0 mi East 12.7 mph - N/A   Clear
10:55 PM 36.9 °F 29.1 °F 31.8 °F 82% 29.90 in 10.0 mi East 11.5 mph - N/A   Clear
11:15 PM 36.7 °F 28.9 °F 31.8 °F 83% 29.89 in 10.0 mi East 11.5 mph - N/A   Clear
11:35 PM 36.7 °F 28.4 °F 31.8 °F 83% 29.89 in 10.0 mi East 12.7 mph 17.3 mph N/A   Clear
11:55 PM 36.7 °F 28.9 °F 31.6 °F 82% 29.89 in 10.0 mi East 11.5 mph - N/A   Clear